Wind_Speed
4 4 4 4 4 4 4 4 4 5 6 7 8 8 8 9 10 9 8 9 9 9 9 8 9 9 8 7 7 8 8 8 8 7 7 7 6 5 4 4 4 4 5
4 4 4 5 5 5 4 4 5 5 6 7 8 7 8 8 9 9 8 9 8 8 8 8 8 8 8 8 8 8 9 9 8 7 7 7 6 5 5 4 4 5 6
4 4 4 5 5 5 4 4 4 5 6 6 7 7 7 8 8 8 8 8 7 7 7 7 7 7 7 8 9 9 9 8 7 6 6 6 5 5 5 5 5 5 6
4 5 5 5 5 5 4 4 5 5 5 6 6 6 7 7 7 7 7 7 7 6 6 7 6 6 6 7 7 8 8 7 6 6 5 4 5 5 6 6 5 5 6
4 5 5 5 5 5 4 4 4 4 4 5 5 5 6 7 7 6 6 6 6 5 6 6 6 5 6 6 7 7 7 7 6 6 5 4 5 6 5 5 4 5 5
4 4 5 5 5 5 5 5 5 4 4 5 5 5 5 6 6 6 6 5 5 5 5 5 4 4 5 6 6 7 6 6 6 5 5 4 4 5 5 5 5 4 4
4 5 6 6 5 5 5 5 4 4 4 5 5 5 5 5 5 5 5 5 5 4 3 3 3 4 5 6 6 6 6 6 6 4 4 5 5 5 5 5 5 4 4
5 5 4 4 5 5 5 5 4 4 4 4 5 5 4 5 5 5 4 5 4 4 3 2 2 3 5 6 7 7 7 6 6 5 4 4 5 5 5 4 4 4 4
5 5 4 4 3 4 5 4 4 4 4 4 4 4 4 4 4 5 4 4 4 3 3 2 3 4 5 6 7 7 7 7 6 5 4 4 4 4 4 4 4 3 3
6 5 4 4 4 4 4 4 4 4 4 4 3 3 4 4 5 5 4 4 3 3 3 2 3 4 5 5 6 7 7 6 6 5 5 4 4 4 4 4 4 3 3
8 6 5 5 5 4 4 3 3 4 4 4 4 4 4 4 3 4 4 3 3 3 2 2 3 4 4 5 6 6 6 6 6 5 5 5 4 4 4 5 4 4 3
8 8 7 7 6 6 4 3 3 3 3 4 4 4 4 3 3 2 3 3 2 2 2 1 1 3 4 5 5 5 5 5 5 5 5 5 4 4 5 5 6 6 5
9 9 8 8 7 6 6 5 4 4 4 3 3 3 3 2 2 2 2 2 2 2 2 1 1 2 3 4 4 5 6 5 5 4 5 5 5 5 5 5 6 6 6
9 9 8 8 7 7 7 6 5 5 4 3 3 3 2 2 1 1 1 2 2 2 2 1 1 2 2 4 5 6 6 6 5 5 5 6 6 6 6 6 6 7 7
10 9 8 8 8 7 7 6 5 4 3 3 3 2 2 1 1 1 2 2 2 2 2 2 2 2 3 3 4 6 7 6 6 6 6 7 7 7 7 7 7 8 8
11 10 9 9 8 7 7 6 5 5 4 3 3 2 2 1 2 1 1 2 2 2 2 2 2 3 3 4 5 6 7 6 6 7 7 7 8 8 8 8 8 9 9
12 11 10 9 8 7 7 6 6 5 5 4 4 3 3 2 2 2 2 2 3 4 3 3 3 3 4 5 6 7 7 7 7 8 8 8 8 8 9 9 10 10 10
12 12 11 10 8 7 7 6 5 5 5 4 4 4 3 3 3 3 4 3 4 4 4 4 4 4 5 5 6 7 7 8 9 9 9 10 9 10 10 10 10 11 11
12 11 11 10 9 8 8 7 6 5 5 5 4 4 4 4 4 4 4 4 4 4 4 4 5 5 5 5 6 6 7 8 9 10 10 10 10 10 10 11 11 12 12
12 11 11 10 9 8 7 7 7 6 6 6 5 5 5 5 5 5 5 5 5 5 5 5 5 6 6 6 7 7 8 9 10 10 11 11 11 11 12 12 12 12 12
12 12 11 10 9 9 8 9 8 7 6 6 5 6 6 6 6 6 7 7 7 6 6 6 7 7 8 7 8 8 8 9 10 11 11 12 12 12 13 13 13 13 13
12 12 12 11 9 9 8 8 8 8 7 7 7 6 6 6 6 7 7 8 7 7 7 7 7 8 8 8 8 8 9 9 10 11 12 12 12 12 12 13 14 14 15
12 12 11 11 10 9 9 9 9 8 8 8 8 8 7 7 7 7 8 9 8 8 8 8 8 8 9 9 9 9 9 10 10 11 11 11 12 12 13 14 14 15 15
11 11 11 11 11 10 10 9 9 9 9 9 8 8 8 8 8 8 9 9 9 9 9 9 9 9 9 9 9 10 10 10 10 11 11 12 12 12 13 13 14 14 15
11 11 11 11 10 10 10 10 9 9 9 10 10 9 9 9 9 9 10 10 10 10 10 11 10 10 10 11 11 11 12 12 12 12 12 12 12 13 14 14 14 15 16
11 10 10 11 11 10 10 10 10 10 10 10 10 10 10 9 9 10 11 11 11 11 11 12 12 11 11 11 12 13 13 13 13 13 13 12 13 14 15 15 15 15 16
Wind_Direction
127 121 120 125 124 127 139 147 144 150 150 151 148 149 147 145 142 136 134 132 136 136 133 132 129 129 135 139 141 148 156 152 146 148 148 143 135 132 123 123 122 109 108
118 115 124 125 124 129 137 146 151 159 161 152 150 155 152 150 144 136 134 135 137 138 136 133 130 129 133 136 138 141 146 144 141 140 137 132 132 134 125 115 111 108 101
112 114 120 125 123 127 131 137 142 152 157 152 152 154 151 149 144 139 138 139 141 138 135 138 135 136 138 140 142 144 149 150 144 138 138 129 126 123 122 112 110 108 103
105 109 116 122 120 128 135 134 137 146 152 157 156 154 148 145 141 138 144 147 146 144 144 143 142 144 145 149 151 151 152 152 150 141 135 138 130 118 114 113 117 112 108
104 105 109 117 123 128 131 133 141 147 147 148 147 145 145 144 141 140 138 145 148 144 141 141 147 150 152 156 164 163 161 158 155 148 144 140 131 121 114 116 121 113 112
95 99 113 121 123 124 126 129 134 139 142 141 137 137 144 148 149 148 144 146 146 143 137 138 146 154 157 161 168 170 174 176 163 155 158 151 140 127 120 119 117 117 119
91 95 111 117 121 122 125 130 135 136 135 139 136 138 148 154 159 157 153 153 151 153 149 151 159 174 169 169 171 169 166 173 164 159 164 163 154 143 134 131 129 119 119
79 81 91 106 112 118 123 130 138 133 128 131 133 134 140 151 157 158 157 163 164 157 159 166 156 158 171 175 177 173 169 177 175 170 172 169 165 152 146 143 143 137 130
75 75 80 88 101 112 123 129 141 140 134 131 134 132 131 138 151 155 158 162 166 173 171 157 146 147 158 169 173 172 173 179 175 175 189 187 177 171 171 165 162 165 154
66 70 77 85 94 108 121 129 139 136 139 134 129 128 133 137 141 148 150 156 165 171 173 161 141 145 149 162 172 176 175 180 180 189 195 193 187 190 196 192 186 190 189
59 69 72 77 78 83 96 114 130 132 141 143 140 137 135 136 139 147 150 157 162 168 168 172 154 153 157 164 172 178 183 186 185 199 206 205 201 210 214 214 212 214 219
63 65 65 74 81 83 88 103 127 140 145 143 149 144 137 137 130 142 147 152 157 169 170 176 156 172 172 179 183 188 186 196 205 212 220 219 222 225 231 234 236 237 241
63 61 61 63 71 71 75 86 108 118 123 126 141 143 133 123 113 131 144 152 157 169 191 202 185 193 202 199 200 203 196 212 220 223 234 236 241 247 247 244 246 245 246
60 59 62 64 66 66 66 75 87 110 117 110 107 117 105 96 94 158 184 195 198 202 211 218 234 217 214 217 212 216 219 222 222 227 238 237 244 252 253 250 245 248 250
58 61 64 61 64 62 65 66 67 77 85 85 83 88 80 57 12 251 220 237 234 236 232 227 224 231 234 235 222 223 228 229 227 231 242 241 243 252 255 252 256 257 256
55 57 57 59 57 56 59 61 60 61 69 66 60 60 51 26 10 339 270 259 255 256 244 232 240 247 247 247 237 236 241 239 242 247 249 252 252 255 256 252 259 264 263
52 55 55 55 55 52 53 54 52 49 53 49 37 28 18 6 359 349 332 290 265 261 255 260 267 262 266 261 251 249 248 249 255 256 256 259 262 261 260 258 260 265 266
48 49 50 52 53 50 48 49 44 39 39 36 29 17 6 352 338 335 330 307 278 265 264 267 268 267 273 268 257 254 254 259 259 258 256 258 262 262 261 261 261 263 263
45 45 45 46 47 46 45 44 40 34 34 33 26 18 8 351 334 328 328 322 299 284 280 275 269 267 268 265 269 266 261 263 264 264 262 261 266 260 263 266 265 266 265
40 38 38 37 38 39 37 35 34 32 32 29 22 15 10 1 350 342 335 331 322 306 301 300 289 282 277 277 277 272 271 274 269 268 268 270 273 269 267 267 267 267 267
36 35 33 31 28 27 27 26 26 24 20 15 11 9 7 3 356 348 343 336 325 316 310 308 301 292 286 284 284 282 282 280 275 272 272 275 276 277 274 271 270 272 268
30 29 28 25 23 23 22 18 16 16 15 14 11 6 360 355 352 348 344 339 332 323 320 312 306 298 290 287 289 286 286 285 283 278 276 276 278 278 277 276 276 276 272
23 23 21 19 18 19 14 10 6 5 7 7 6 1 356 353 351 347 346 344 339 330 321 314 308 301 295 291 290 286 285 287 286 284 286 285 284 280 279 280 283 281 277
12 13 14 12 10 8 7 5 4 2 359 357 357 355 354 352 348 346 342 339 337 331 322 315 308 304 300 296 295 293 291 291 290 289 289 287 286 285 284 285 287 286 284
2 2 2 2 1 359 358 358 358 357 355 353 351 347 346 344 342 340 338 333 329 327 325 325 319 310 303 298 295 293 292 291 292 292 290 290 288 286 285 285 285 287 286
350 350 350 351 351 351 350 349 348 349 348 347 346 344 342 340 340 337 334 331 324 319 317 319 316 314 308 301 297 295 293 292 293 292 291 290 289 288 286 287 288 288 289
Height
5860 5860 5861 5861 5861 5862 5862 5863 5864 5864 5864 5864 5865 5866 5867 5868 5869 5870 5870 5871 5872 5873 5874 5874 5876 5876 5877 5878 5879 5880 5881 5883 5884 5885 5886 5888 5889 5890 5890 5890 5890 5891 5892
5861 5861 5862 5862 5863 5863 5864 5864 5865 5865 5865 5866 5867 5868 5868 5869 5870 5871 5872 5873 5873 5874 5875 5876 5877 5877 5878 5879 5880 5881 5882 5884 5885 5886 5887 5888 5889 5890 5891 5891 5891 5892 5893
5862 5862 5863 5863 5864 5864 5865 5865 5866 5866 5866 5867 5868 5869 5869 5870 5871 5872 5873 5874 5875 5876 5876 5877 5878 5878 5879 5880 5881 5882 5884 5885 5886 5887 5888 5889 5890 5891 5891 5892 5893 5893 5894
5862 5863 5863 5864 5865 5865 5865 5866 5867 5867 5868 5868 5869 5870 5871 5871 5872 5873 5874 5875 5876 5877 5877 5878 5879 5879 5880 5881 5882 5883 5885 5886 5887 5888 5889 5890 5891 5892 5892 5893 5894 5894 5895
5863 5864 5864 5865 5866 5866 5867 5867 5868 5868 5869 5869 5870 5871 5872 5873 5873 5874 5875 5876 5877 5877 5878 5879 5879 5880 5880 5881 5883 5884 5885 5886 5887 5888 5890 5890 5891 5892 5893 5893 5894 5895 5896
5865 5865 5865 5866 5867 5867 5868 5868 5869 5869 5870 5871 5871 5872 5873 5873 5874 5875 5876 5877 5877 5878 5878 5879 5879 5880 5881 5882 5882 5883 5885 5886 5888 5889 5890 5891 5892 5892 5893 5894 5895 5895 5896
5866 5866 5866 5867 5867 5868 5869 5869 5870 5870 5871 5871 5872 5873 5873 5874 5875 5876 5877 5878 5878 5878 5879 5879 5879 5879 5879 5881 5882 5884 5885 5887 5888 5890 5890 5891 5892 5893 5894 5894 5895 5896 5897
5868 5867 5867 5868 5868 5869 5870 5870 5871 5871 5871 5872 5873 5873 5874 5874 5875 5876 5877 5878 5879 5879 5879 5879 5878 5877 5878 5879 5882 5884 5885 5886 5888 5890 5890 5891 5892 5893 5894 5895 5896 5897 5897
5869 5869 5869 5869 5869 5870 5870 5870 5871 5872 5872 5873 5873 5874 5875 5875 5876 5877 5878 5878 5879 5879 5880 5879 5878 5877 5877 5879 5881 5883 5885 5886 5888 5889 5890 5891 5892 5893 5894 5895 5896 5897 5897
5870 5870 5870 5870 5870 5870 5870 5871 5871 5872 5873 5874 5874 5875 5875 5876 5877 5878 5878 5879 5879 5880 5880 5879 5879 5878 5879 5880 5882 5883 5885 5886 5888 5889 5890 5891 5892 5893 5894 5895 5896 5897 5897
5872 5871 5871 5871 5871 5871 5871 5870 5871 5872 5874 5875 5875 5876 5876 5877 5877 5878 5879 5879 5879 5880 5880 5880 5880 5880 5881 5882 5883 5884 5885 5887 5888 5889 5890 5891 5892 5893 5894 5895 5896 5897 5897
5874 5873 5873 5873 5872 5872 5871 5870 5871 5872 5874 5875 5876 5877 5877 5878 5878 5879 5879 5880 5880 5880 5881 5881 5881 5881 5882 5882 5884 5884 5886 5887 5888 5889 5890 5890 5891 5893 5894 5895 5896 5896 5897
5876 5876 5875 5875 5874 5873 5872 5871 5872 5873 5874 5876 5877 5877 5878 5878 5879 5879 5880 5880 5881 5881 5881 5882 5882 5882 5883 5882 5883 5884 5885 5886 5888 5889 5889 5890 5891 5892 5893 5894 5895 5895 5896
5878 5877 5877 5876 5876 5875 5875 5874 5874 5874 5876 5877 5877 5878 5879 5879 5879 5880 5880 5881 5881 5881 5882 5882 5882 5882 5883 5883 5884 5884 5885 5886 5888 5888 5889 5890 5891 5891 5892 5892 5893 5894 5895
5880 5879 5879 5878 5878 5878 5877 5877 5877 5877 5878 5878 5879 5879 5879 5880 5880 5880 5880 5881 5881 5882 5882 5882 5882 5883 5883 5883 5883 5884 5885 5885 5887 5887 5888 5889 5890 5890 5891 5892 5892 5893 5893
5882 5882 5881 5881 5880 5880 5880 5879 5879 5879 5879 5880 5880 5880 5880 5880 5880 5880 5881 5881 5881 5881 5882 5882 5882 5882 5882 5883 5883 5883 5883 5884 5885 5886 5887 5888 5888 5889 5889 5890 5891 5891 5891
5885 5884 5883 5883 5883 5882 5882 5882 5882 5881 5881 5881 5881 5881 5881 5881 5881 5881 5881 5881 5881 5881 5881 5882 5882 5882 5882 5882 5883 5883 5883 5884 5884 5885 5886 5886 5886 5887 5887 5888 5889 5889 5889
5887 5886 5886 5885 5885 5885 5884 5884 5883 5883 5883 5882 5882 5882 5882 5882 5881 5881 5881 5881 5881 5881 5881 5881 5882 5882 5882 5882 5882 5882 5883 5883 5884 5884 5884 5884 5884 5885 5885 5886 5886 5887 5887
5890 5889 5888 5888 5887 5887 5886 5886 5885 5884 5884 5884 5883 5883 5882 5882 5882 5882 5881 5880 5880 5880 5880 5880 5881 5881 5881 5881 5881 5881 5881 5882 5882 5882 5883 5882 5883 5883 5883 5883 5884 5884 5885
5892 5891 5890 5890 5889 5888 5888 5887 5886 5886 5885 5885 5884 5884 5883 5883 5882 5882 5881 5880 5880 5880 5880 5880 5880 5880 5880 5880 5880 5880 5880 5880 5880 5881 5881 5880 5880 5881 5881 5881 5882 5882 5882
5894 5893 5892 5891 5891 5890 5889 5889 5888 5887 5886 5886 5885 5884 5884 5883 5882 5882 5881 5880 5880 5880 5880 5879 5879 5879 5879 5879 5878 5878 5878 5878 5879 5878 5878 5878 5878 5878 5879 5879 5879 5879 5880
5896 5895 5894 5893 5892 5891 5890 5890 5889 5888 5887 5886 5885 5884 5884 5883 5882 5882 5881 5880 5879 5879 5878 5878 5878 5878 5878 5878 5877 5877 5877 5877 5877 5876 5876 5876 5876 5876 5876 5876 5876 5876 5877
5897 5896 5895 5894 5893 5892 5891 5890 5889 5889 5888 5887 5886 5885 5884 5883 5882 5881 5880 5880 5879 5878 5878 5877 5877 5877 5876 5876 5876 5876 5875 5875 5874 5874 5873 5873 5873 5873 5873 5873 5873 5873 5873
5899 5898 5896 5895 5894 5893 5892 5891 5890 5889 5888 5887 5886 5885 5884 5883 5882 5881 5880 5879 5878 5878 5877 5876 5875 5875 5874 5874 5873 5873 5873 5872 5872 5872 5871 5871 5870 5870 5870 5870 5870 5869 5869
5899 5898 5897 5896 5895 5893 5892 5891 5890 5889 5888 5886 5885 5885 5884 5883 5882 5880 5879 5878 5877 5876 5876 5875 5874 5873 5872 5872 5871 5871 5870 5870 5869 5869 5868 5868 5867 5867 5866 5866 5866 5865 5865
5900 5898 5897 5896 5894 5893 5892 5891 5889 5888 5887 5886 5885 5884 5883 5882 5881 5880 5878 5877 5876 5874 5874 5873 5872 5871 5870 5869 5869 5868 5868 5867 5866 5866 5865 5864 5864 5863 5863 5862 5862 5861 5860